| time (UTC) | temp F | wind direction | speed knots | gust knots | rain 1hr in | rain 24hr in | rain mn in | humidity % | barometer mb |
| 20260508050859 | 45 | 71 | 0.0 | 1.7 | 0.00 | 0.00 | 0.00 | 84 | 1008.8 |
| 20260508045400 | 46 | 41 | 0.0 | 2.6 | 0.00 | 0.00 | 0.00 | 84 | 1008.8 |
| 20260508043900 | 46 | 41 | 0.0 | 3.5 | 0.00 | 0.00 | 0.00 | 84 | 1008.7 |
| 20260508042400 | 46 | 41 | 2.6 | 2.6 | 0.00 | 0.00 | 0.00 | 85 | 1008.6 |
| 20260508040900 | 47 | 41 | 0.0 | 3.5 | 0.00 | 0.00 | 0.00 | 85 | 1008.6 |
| 20260508035400 | 47 | 41 | 0.9 | 3.5 | 0.00 | 0.00 | 0.00 | 85 | 1008.6 |
| 20260508033859 | 48 | 41 | 1.7 | 0.0 | 0.00 | 0.00 | 0.00 | 84 | 1008.6 |
| 20260508032359 | 48 | 41 | 0.0 | 3.5 | 0.00 | 0.00 | 0.00 | 84 | 1008.5 |
| 20260508030859 | 48 | 41 | 2.6 | 5.2 | 0.00 | 0.00 | 0.00 | 84 | 1008.3 |
| 20260508025359 | 49 | 40 | 4.3 | 0.0 | 0.00 | 0.00 | 0.00 | 83 | 1008.3 |
| 20260508023859 | 49 | 38 | 0.0 | 0.0 | 0.00 | 0.00 | 0.00 | 84 | 1008.3 |
| 20260508022359 | 49 | 37 | 0.0 | 0.0 | 0.00 | 0.00 | 0.00 | 84 | 1008.3 |
| 20260508020900 | 49 | 37 | 0.0 | 0.0 | 0.00 | 0.00 | 0.00 | 83 | 1008.6 |
| 20260508015400 | 50 | 37 | 0.0 | 0.0 | 0.00 | 0.00 | 0.00 | 82 | 1008.6 |
| 20260508013901 | 50 | 37 | 0.0 | 5.2 | 0.00 | 0.00 | 0.00 | 81 | 1008.7 |
| 20260508012400 | 51 | 35 | 2.6 | 0.0 | 0.00 | 0.00 | 0.00 | 80 | 1009.0 |
| 20260508010900 | 52 | 135 | 0.0 | 0.0 | 0.00 | 0.00 | 0.00 | 76 | 1009.2 |
| 20260508005400 | 52 | 255 | 0.0 | 0.0 | 0.00 | 0.00 | 0.00 | 78 | 1009.4 |
| 20260508003859 | 53 | 259 | 0.0 | 0.0 | 0.00 | 0.00 | 0.00 | 75 | 1009.6 |
| 20260508002359 | 54 | 264 | 0.0 | 0.0 | 0.00 | 0.00 | 0.00 | 75 | 1009.6 |
| 20260508000859 | 54 | 163 | 0.0 | 0.9 | 0.00 | 0.00 | 0.00 | 75 | 1009.7 |
| 20260507235359 | 54 | 143 | 0.0 | 3.5 | 0.00 | 0.00 | 0.00 | 75 | 1009.7 |
| 20260507233859 | 54 | 155 | 0.0 | 2.6 | 0.00 | 0.00 | 0.00 | 76 | 1009.8 |
| 20260507232359 | 53 | 134 | 0.0 | 0.0 | 0.00 | 0.00 | 0.00 | 77 | 1009.8 |
| 20260507230859 | 53 | 136 | 0.0 | 0.0 | 0.00 | 0.00 | 0.00 | 77 | 1009.9 |
| 20260507225400 | 54 | 153 | 0.0 | 0.0 | 0.00 | 0.06 | 0.06 | 76 | 1010.1 |
| 20260507223900 | 54 | 145 | 0.0 | 0.0 | 0.00 | 0.06 | 0.06 | 77 | 1010.2 |
| 20260507222359 | 54 | 139 | 0.0 | 0.0 | 0.00 | 0.06 | 0.06 | 76 | 1010.3 |
| 20260507220859 | 55 | 139 | 0.0 | 0.0 | 0.00 | 0.06 | 0.06 | 75 | 1010.1 |
| 20260507215359 | 55 | 109 | 0.0 | 0.0 | 0.00 | 0.06 | 0.06 | 75 | 1010.1 |
| 20260507213859 | 55 | 148 | 0.0 | 0.0 | 0.00 | 0.06 | 0.06 | 76 | 1010.1 |
| 20260507212400 | 55 | 97 | 0.0 | 0.0 | 0.00 | 0.06 | 0.06 | 76 | 1010.1 |
| 20260507210900 | 54 | 84 | 0.0 | 0.0 | 0.00 | 0.06 | 0.06 | 77 | 1009.9 |
| 20260507205400 | 54 | 85 | 0.0 | 0.0 | 0.00 | 0.06 | 0.06 | 76 | 1009.7 |
| 20260507203856 | 55 | 248 | 0.0 | 0.0 | 0.00 | 0.06 | 0.06 | 76 | 1009.7 |
| 20260507202357 | 55 | 250 | 0.0 | 0.0 | 0.00 | 0.06 | 0.06 | 72 | 1009.7 |
| 20260507200858 | 55 | 254 | 0.0 | 0.0 | 0.00 | 0.06 | 0.06 | 75 | 1009.7 |
| 20260507195357 | 55 | 248 | 0.0 | 10.4 | 0.00 | 0.06 | 0.06 | 76 | 1009.7 |
| 20260507193858 | 56 | 255 | 3.5 | 0.0 | 0.00 | 0.06 | 0.06 | 71 | 1009.7 |
| 20260507192357 | 57 | 148 | 0.0 | 8.7 | 0.00 | 0.06 | 0.06 | 68 | 1009.2 |
| 20260507190858 | 58 | 246 | 0.0 | 7.0 | 0.00 | 0.06 | 0.06 | 67 | 1008.9 |
| 20260507185357 | 58 | 160 | 0.0 | 11.3 | 0.00 | 0.06 | 0.06 | 66 | 1008.8 |
| 20260507183858 | 59 | 146 | 0.0 | 14.8 | 0.00 | 0.06 | 0.06 | 64 | 1008.5 |
| 20260507180857 | 60 | 101 | 13.9 | 19.1 | 0.00 | 0.06 | 0.06 | 61 | 1008.2 |
| 20260507175358 | 61 | 89 | 13.0 | 19.1 | 0.00 | 0.06 | 0.06 | 63 | 1008.1 |
| 20260507173857 | 62 | 88 | 13.9 | 13.9 | 0.00 | 0.06 | 0.06 | 57 | 1008.0 |
| 20260507172357 | 62 | 89 | 7.0 | 15.6 | 0.00 | 0.06 | 0.06 | 52 | 1008.1 |
| 20260507170857 | 62 | 100 | 10.4 | 13.9 | 0.00 | 0.06 | 0.06 | 55 | 1008.1 |
| 20260507165356 | 62 | 85 | 0.0 | 9.6 | 0.00 | 0.06 | 0.06 | 59 | 1008.1 |
| 20260507160858 | 61 | 51 | 10.4 | 12.2 | 0.00 | 0.06 | 0.06 | 61 | 1008.0 |
| 20260507153857 | 61 | 46 | 9.6 | 9.6 | 0.00 | 0.06 | 0.06 | 62 | 1008.1 |
| 20260507152358 | 62 | 49 | 4.3 | 6.1 | 0.00 | 0.06 | 0.06 | 56 | 1008.1 |
| 20260507150857 | 61 | 48 | 0.0 | 4.3 | 0.00 | 0.06 | 0.06 | 54 | 1008.0 |
| 20260507145357 | 61 | 56 | 0.0 | 7.0 | 0.00 | 0.06 | 0.06 | 58 | 1008.2 |
| 20260507143856 | 60 | 65 | 1.7 | 8.7 | 0.00 | 0.06 | 0.06 | 63 | 1008.4 |
| 20260507142357 | 58 | 169 | 3.5 | 12.2 | 0.06 | 0.06 | 0.06 | 69 | 1008.3 |
| 20260507140858 | 55 | 149 | 6.1 | 12.2 | 0.06 | 0.06 | 0.06 | 75 | 1008.3 |
| 20260507135357 | 55 | 143 | 8.7 | 15.6 | 0.06 | 0.06 | 0.06 | 73 | 1008.7 |
| 20260507133857 | 56 | 144 | 7.8 | 24.3 | 0.06 | 0.06 | 0.06 | 69 | 1008.9 |
| 20260507132356 | 58 | 147 | 13.9 | 22.6 | 0.00 | 0.00 | 0.00 | 62 | 1008.8 |
| 20260507130857 | 66 | 174 | 7.8 | 3.5 | 0.00 | 0.00 | 0.00 | 47 | 1008.3 |
| 20260507123857 | 65 | 55 | 0.9 | 7.0 | 0.00 | 0.00 | 0.00 | 47 | 1007.9 |
| 20260507122356 | 66 | 278 | 3.5 | 5.2 | 0.00 | 0.00 | 0.00 | 46 | 1008.0 |
| 20260507120857 | 66 | 78 | 1.7 | 6.1 | 0.00 | 0.00 | 0.00 | 46 | 1008.2 |
| 20260507115358 | 66 | 240 | 0.9 | 4.3 | 0.00 | 0.00 | 0.00 | 48 | 1008.5 |
| 20260507113857 | 66 | 267 | 0.0 | 4.3 | 0.00 | 0.00 | 0.00 | 50 | 1008.8 |
| 20260507112358 | 65 | 87 | 0.9 | 6.1 | 0.00 | 0.00 | 0.00 | 50 | 1008.8 |
| 20260507110856 | 65 | 91 | 1.7 | 5.2 | 0.00 | 0.00 | 0.00 | 49 | 1009.0 |
| 20260507105357 | 64 | 247 | 0.0 | 8.7 | 0.00 | 0.00 | 0.00 | 51 | 1009.2 |
| 20260507103858 | 64 | 210 | 5.2 | 4.3 | 0.00 | 0.00 | 0.00 | 52 | 1009.3 |
| 20260507102357 | 64 | 150 | 2.6 | 5.2 | 0.00 | 0.00 | 0.00 | 57 | 1009.5 |
| 20260507100857 | 64 | 244 | 1.7 | 5.2 | 0.00 | 0.00 | 0.00 | 55 | 1009.6 |
| 20260507095358 | 63 | 46 | 0.0 | 3.5 | 0.00 | 0.00 | 0.00 | 58 | 1009.7 |
| 20260507093857 | 62 | 44 | 0.0 | 2.6 | 0.00 | 0.00 | 0.00 | 59 | 1009.8 |
| 20260507092356 | 61 | 328 | 0.0 | 7.8 | 0.00 | 0.00 | 0.00 | 59 | 1009.9 |
| 20260507090857 | 60 | 39 | 3.5 | 3.5 | 0.00 | 0.00 | 0.00 | 63 | 1009.8 |
| 20260507085358 | 58 | 45 | 0.0 | 4.3 | 0.00 | 0.00 | 0.00 | 67 | 1009.8 |
| 20260507083856 | 57 | 44 | 0.0 | 3.5 | 0.00 | 0.00 | 0.00 | 69 | 1009.9 |
| 20260507082357 | 57 | 56 | 3.5 | 2.6 | 0.00 | 0.00 | 0.00 | 69 | 1010.1 |
| 20260507080858 | 55 | 242 | 0.0 | 7.0 | 0.00 | 0.00 | 0.00 | 74 | 1010.1 |
| 20260507075358 | 53 | 42 | 5.2 | 7.0 | 0.00 | 0.00 | 0.00 | 79 | 1010.1 |
| 20260507073857 | 51 | 37 | 3.5 | 8.7 | 0.00 | 0.00 | 0.00 | 82 | 1010.0 |
| 20260507072358 | 50 | 54 | 4.3 | 10.4 | 0.00 | 0.00 | 0.00 | 84 | 1010.0 |
| 20260507070856 | 48 | 27 | 6.1 | 8.7 | 0.00 | 0.00 | 0.00 | 85 | 1010.1 |
| 20260507065357 | 47 | 19 | 5.2 | 10.4 | 0.00 | 0.00 | 0.00 | 85 | 1010.1 |
| 20260507063858 | 47 | 40 | 8.7 | 7.0 | 0.00 | 0.00 | 0.00 | 85 | 1010.1 |
| 20260507062356 | 47 | 17 | 3.5 | 7.8 | 0.00 | 0.00 | 0.00 | 85 | 1010.3 |
| 20260507060857 | 47 | 34 | 5.2 | 7.8 | 0.00 | 0.00 | 0.00 | 85 | 1010.0 |